DW0269 Weather Reports


Display with metric or nautical units.
time (UTC)temp
F
wind
direction
speed
MPH
gust
MPH
rain 1hr
in
rain 24hr
in
rain mn
in
humidity
%
barometer
mb
20260506185504 73 321 1.0 11.0 0.00 0.00 0.00 76 950.8
20260506185002 73 280 1.0 11.0 0.00 0.00 0.00 77 951.0
20260506184501 73 240 1.0 11.0 0.00 0.00 0.00 79 950.9
20260506184000 72 235 3.0 11.0 0.00 0.00 0.00 78 951.2
20260506182428 73 122 2.0 11.0 0.00 0.00 0.00 80 950.5
20260506181926 72 116 4.0 11.0 0.00 0.00 0.00 78 950.7
20260506180909 72 136 2.0 11.0 0.00 0.00 0.00 82 950.4
20260506180408 72 137 4.0 11.0 0.00 0.00 0.00 81 950.5
20260506175351 71 81 2.0 11.0 0.00 0.00 0.00 83 950.2
20260506174335 69 87 0.0 11.0 0.00 0.00 0.00 87 950.1
20260506173834 69 39 0.0 11.0 0.00 0.00 0.00 89 949.8
20260506173333 68 82 0.0 11.0 0.00 0.00 0.00 92 949.8
20260506172831 67 63 0.0 11.0 0.00 0.00 0.00 92 949.9
20260506172331 66 31 0.0 11.0 0.00 0.00 0.00 93 949.7
20260506171313 65 31 0.0 11.0 0.00 0.00 0.00 91 949.5
20260506170812 64 21 1.0 11.0 0.00 0.00 0.00 90 949.2
20260506165755 63 30 1.0 11.0 0.00 0.00 0.00 90 949.5
20260506165255 63 29 1.0 11.0 0.00 0.00 0.00 91 949.2
20260506164753 63 4 0.0 11.0 0.00 0.00 0.00 92 949.1
20260506164251 62 4 0.0 11.0 0.00 0.00 0.00 91 949.4
20260506163750 62 4 0.0 11.0 0.00 0.00 0.00 90 949.1
20260506163249 62 4 1.0 11.0 0.00 0.00 0.00 90 949.2
20260506162749 62 6 1.0 11.0 0.00 0.00 0.00 90 949.0
20260506162248 61 3 1.0 11.0 0.00 0.00 0.00 91 948.9
20260506161747 61 0 1.0 11.0 0.00 0.00 0.00 91 948.8
20260506160729 61 7 1.0 11.0 0.00 0.00 0.00 93 949.0
20260506155713 60 18 0.0 11.0 0.00 0.00 0.00 92 948.6
20260506155212 61 13 2.0 11.0 0.00 0.00 0.00 93 948.5
20260506154154 61 13 2.0 11.0 0.00 0.00 0.00 92 948.5
20260506153653 61 0 2.0 11.0 0.00 0.00 0.00 92 948.4
20260506153153 61 1 2.0 11.0 0.00 0.00 0.00 92 948.5
20260506152651 61 1 2.0 11.0 0.00 0.00 0.00 92 948.8
20260506152150 61 6 2.0 11.0 0.00 0.00 0.00 92 948.6
20260506151648 61 14 2.0 11.0 0.00 0.00 0.00 92 948.4
20260506151147 61 13 2.0 11.0 0.00 0.00 0.00 92 948.5
20260506150646 61 0 1.0 11.0 0.00 0.00 0.00 93 949.1
20260506150145 61 0 2.0 11.0 0.00 0.00 0.00 93 949.0
20260506144612 61 9 2.0 11.0 0.00 0.00 0.00 91 948.3
20260506144112 61 9 2.0 11.0 0.00 0.00 0.00 91 948.5
20260506143614 61 9 2.0 11.0 0.00 0.00 0.00 92 948.2
20260506143109 61 13 2.0 11.0 0.00 0.00 0.00 91 948.4
20260506142608 61 14 2.0 11.0 0.00 0.00 0.00 93 948.4
20260506142107 61 13 2.0 11.0 0.00 0.00 0.00 92 947.9
20260506141607 61 18 2.0 11.0 0.00 0.00 0.00 92 948.6
20260506141106 61 12 1.0 11.0 0.00 0.00 0.00 93 948.1
20260506140604 61 15 1.0 11.0 0.00 0.00 0.00 93 948.2
20260506135602 62 16 2.0 11.0 0.00 0.00 0.00 94 948.5
20260506135101 62 16 2.0 11.0 0.00 0.00 0.00 94 948.3
20260506134600 62 15 2.0 11.0 0.00 0.00 0.00 94 948.2
20260506134059 62 24 1.0 11.0 0.00 0.00 0.00 95 948.4
20260506133558 62 38 2.0 11.0 0.00 0.00 0.00 95 948.3
20260506133056 61 27 2.0 11.0 0.00 0.00 0.00 95 948.5
20260506132555 61 30 2.0 11.0 0.00 0.00 0.00 95 948.3
20260506131538 61 13 2.0 11.0 0.00 0.00 0.00 94 948.8
20260506130521 61 2 1.0 11.0 0.00 0.00 0.00 94 948.4
20260506130020 61 0 0.0 11.0 0.00 0.00 0.00 95 948.8
20260506125519 61 0 0.0 11.0 0.00 0.00 0.00 95 948.7
20260506125018 61 0 1.0 11.0 0.00 0.00 0.00 94 948.8
20260506124001 61 5 1.0 11.0 0.00 0.00 0.00 94 948.4
20260506123500 61 30 1.0 11.0 0.00 0.00 0.00 94 948.6
20260506122959 61 30 0.0 11.0 0.00 0.00 0.00 94 948.7
20260506122458 61 30 0.0 11.0 0.00 0.00 0.00 94 948.6
20260506121957 61 30 0.0 11.0 0.00 0.00 0.00 94 948.6
20260506121456 61 30 0.0 11.0 0.00 0.00 0.00 94 948.5
20260506120955 61 30 0.0 11.0 0.00 0.00 0.00 94 948.5
20260506120454 62 30 0.0 11.0 0.00 0.00 0.00 94 948.8
20260506115953 62 31 1.0 11.0 0.00 0.00 0.00 94 948.8
20260506114935 62 24 0.0 11.0 0.00 0.00 0.00 95 948.8
20260506114434 61 28 1.0 11.0 0.00 0.00 0.00 94 948.7
20260506113933 61 35 0.0 11.0 0.00 0.00 0.00 94 948.8
20260506113432 61 35 0.0 11.0 0.00 0.00 0.00 94 949.1
20260506112931 62 43 0.0 11.0 0.00 0.00 0.00 94 949.3
20260506112430 62 38 1.0 11.0 0.00 0.00 0.00 94 949.0
20260506111929 62 42 1.0 11.0 0.00 0.00 0.00 95 949.3
20260506111427 62 33 1.0 11.0 0.00 0.00 0.00 95 949.2
20260506110410 62 296 0.0 11.0 0.00 0.00 0.00 95 949.7
20260506105909 62 296 0.0 11.0 0.00 0.00 0.00 96 949.7
20260506105408 62 296 0.0 11.0 0.00 0.00 0.00 96 950.1
20260506104907 62 296 0.0 11.0 0.00 0.00 0.00 96 949.5
20260506104406 62 296 0.0 11.0 0.00 0.00 0.00 96 949.9
20260506103349 63 296 0.0 11.0 0.00 0.00 0.00 97 950.0
20260506102847 63 296 0.0 11.0 0.00 0.00 0.00 97 950.0
20260506102346 64 296 0.0 11.0 0.00 0.00 0.00 97 950.2
20260506101845 65 296 0.0 11.0 0.00 0.00 0.00 98 950.0
20260506101344 66 296 0.0 11.0 0.00 0.00 0.00 98 950.2
20260506095811 66 285 4.0 11.0 0.00 0.00 0.00 98 950.7
20260506095310 67 281 3.0 11.0 0.00 0.00 0.00 98 950.6
20260506094809 67 255 3.0 11.0 0.00 0.00 0.00 98 950.7
20260506094307 67 268 3.0 11.0 0.00 0.00 0.00 98 950.7
20260506093806 67 230 0.0 11.0 0.00 0.00 0.00 98 950.7
20260506093305 67 233 0.0 11.0 0.00 0.00 0.00 98 950.6
20260506092804 66 237 0.0 11.0 0.00 0.00 0.00 98 950.6
20260506092305 66 268 0.0 11.0 0.00 0.00 0.00 97 950.6
20260506091801 66 312 0.0 11.0 0.00 0.00 0.00 97 950.7
20260506090743 65 32 0.0 11.0 0.00 0.00 0.00 97 950.5
20260506090242 65 278 0.0 11.0 0.00 0.00 0.00 97 950.6
20260506085741 65 278 0.0 11.0 0.00 0.00 0.00 97 950.7
20260506085240 65 278 0.0 11.0 0.00 0.00 0.00 97 950.7
20260506084739 64 278 0.0 11.0 0.00 0.00 0.00 97 950.6
20260506084237 64 278 0.0 11.0 0.00 0.00 0.00 97 950.6
20260506083736 64 278 0.0 11.0 0.00 0.00 0.00 97 950.8
20260506083235 63 278 0.0 11.0 0.00 0.00 0.00 96 950.6
20260506082734 63 278 0.0 11.0 0.00 0.00 0.00 96 950.5
20260506082233 63 278 0.0 11.0 0.00 0.00 0.00 96 950.6
20260506081732 63 278 0.0 11.0 0.00 0.00 0.00 95 950.5
20260506081231 64 278 0.0 11.0 0.00 0.00 0.00 96 950.4
20260506080730 64 278 0.0 11.0 0.00 0.00 0.00 95 950.1
20260506080229 64 278 0.0 11.0 0.00 0.00 0.00 95 950.5
20260506073138 66 278 0.0 11.0 0.00 0.00 0.00 96 950.1
20260506072636 66 278 0.0 11.0 0.00 0.00 0.00 97 950.4
20260506072135 66 278 0.0 11.0 0.00 0.00 0.00 97 950.4
20260506071634 67 278 0.0 11.0 0.00 0.00 0.00 97 950.6
20260506071133 67 278 1.0 11.0 0.00 0.00 0.00 97 950.3
20260506070116 67 282 0.0 11.0 0.00 0.00 0.00 97 950.2
20260506061521 67 284 0.0 11.0 0.00 0.00 0.00 95 949.9
20260506061020 67 284 0.0 11.0 0.00 0.00 0.00 95 950.0
20260506060518 68 284 0.0 11.0 0.00 0.00 0.00 95 949.6
20260506050420 70 271 1.0 11.0 0.00 0.00 0.00 88 949.4
20260506044917 70 268 0.0 11.0 0.00 0.00 0.00 86 949.1
20260506044416 70 229 1.0 11.0 0.00 0.00 0.00 85 948.9
20260506042842 70 257 2.0 11.0 0.00 0.00 0.00 85 948.9
20260506042341 71 230 2.0 11.0 0.00 0.00 0.00 85 948.9
20260506041840 71 260 1.0 11.0 0.00 0.00 0.00 85 948.8
20260506035750 71 234 2.0 11.0 0.00 0.00 0.00 83 948.1
20260506034733 71 204 2.0 11.0 0.00 0.00 0.00 83 948.4
20260506033716 71 270 1.0 11.0 0.00 0.00 0.00 82 948.6
20260506033214 71 235 2.0 11.0 0.00 0.00 0.00 82 948.4
20260506032713 71 252 1.0 11.0 0.00 0.00 0.00 83 948.2
20260506032212 71 258 1.0 11.0 0.00 0.00 0.00 83 948.4
20260506031155 71 263 2.0 11.0 0.00 0.00 0.00 83 948.1
20260506030654 71 257 3.0 11.0 0.00 0.00 0.00 81 948.0
20260506030153 72 298 2.0 11.0 0.00 0.00 0.00 81 948.3
20260506025652 72 260 5.0 11.0 0.00 0.00 0.00 80 947.9
20260506025151 72 264 2.0 11.0 0.00 0.00 0.00 80 948.3
20260506024650 72 283 3.0 11.0 0.00 0.00 0.00 80 948.3
20260506023633 73 272 2.0 11.0 0.00 0.00 0.00 78 948.1
20260506023132 73 259 3.0 11.0 0.00 0.00 0.00 78 948.1
20260506022631 73 261 3.0 11.0 0.00 0.00 0.00 77 948.2
20260506022131 73 272 3.0 11.0 0.00 0.00 0.00 77 948.1
20260506021629 73 262 3.0 11.0 0.00 0.00 0.00 77 948.0
20260506021127 74 269 3.0 11.0 0.00 0.00 0.00 75 948.3
20260506020626 74 246 3.0 11.0 0.00 0.00 0.00 76 948.3
20260506020126 74 290 3.0 11.0 0.00 0.00 0.00 75 948.4
20260506015625 75 259 4.0 11.0 0.00 0.00 0.00 75 948.1
20260506014607 75 263 4.0 11.0 0.00 0.00 0.00 75 948.3
20260506014107 74 268 3.0 11.0 0.00 0.00 0.00 76 948.4
20260506013605 75 268 3.0 11.0 0.00 0.00 0.00 73 948.4
20260506013105 75 274 2.0 11.0 0.00 0.00 0.00 75 948.3
20260506012048 75 218 3.0 11.0 0.00 0.00 0.00 73 948.5
20260506011546 75 271 4.0 11.0 0.00 0.00 0.00 77 948.2
20260506011046 75 226 3.0 11.0 0.00 0.00 0.00 78 948.5
20260506010545 75 241 6.0 12.0 0.00 0.00 0.00 75 948.4
20260506010044 75 259 4.0 12.0 0.00 0.00 0.00 78 948.4
20260506005026 74 227 3.0 12.0 0.00 0.00 0.00 79 948.5
20260506004526 75 256 6.0 12.0 0.00 0.00 0.00 77 948.7
20260506004024 75 259 4.0 12.0 0.00 0.00 0.00 78 949.0
20260506003524 75 248 7.0 13.0 0.00 0.00 0.00 76 948.7
20260506003022 76 270 7.0 13.0 0.00 0.00 0.00 74 948.8
20260506002521 76 268 5.0 12.0 0.00 0.00 0.00 75 949.0
20260506002020 76 241 5.0 12.0 0.00 0.00 0.00 74 948.9
20260506001520 76 260 6.0 12.0 0.00 0.00 0.00 75 948.9
20260506000502 76 260 4.0 14.0 0.00 0.00 0.00 74 948.7
20260506000002 76 245 6.0 14.0 0.00 0.00 0.00 75 948.7
20260505235501 76 252 3.0 11.0 0.00 0.00 0.00 77 949.2
20260505234959 75 258 5.0 12.0 0.00 0.00 0.00 77 948.9
20260505233942 76 270 5.0 12.0 0.00 0.00 0.00 77 949.2
20260505233442 76 214 4.0 12.0 0.00 0.00 0.00 76 949.2
20260505232425 76 256 3.0 11.0 0.00 0.00 0.00 76 949.3
20260505231923 76 260 4.0 12.0 0.00 0.00 0.00 76 949.5
20260505231422 75 270 8.0 13.0 0.00 0.00 0.00 73 949.4
20260505230921 75 258 5.0 13.0 0.00 0.00 0.00 74 949.6
20260505230420 76 240 6.0 12.0 0.00 0.00 0.00 73 949.4
20260505225919 75 263 4.0 14.0 0.00 0.00 0.00 76 949.6
20260505225418 75 226 4.0 14.0 0.00 0.00 0.00 77 949.6
20260505224917 75 251 5.0 12.0 0.00 0.00 0.00 77 950.0
20260505224416 75 270 5.0 12.0 0.00 0.00 0.00 78 949.9
20260505223915 75 244 6.0 12.0 0.00 0.00 0.00 77 949.7
20260505223414 75 246 6.0 12.0 0.00 0.00 0.00 77 949.9
20260505222913 76 216 6.0 12.0 0.00 0.00 0.00 74 949.8
20260505221856 76 274 6.0 12.0 0.00 0.00 0.00 77 950.0
20260505221355 76 266 5.0 12.0 0.00 0.00 0.00 77 950.0
20260505220337 76 240 7.0 14.0 0.00 0.00 0.00 77 950.0
20260505215320 75 264 7.0 11.0 0.00 0.00 0.00 77 950.5
20260505214819 75 265 5.0 11.0 0.00 0.00 0.00 75 950.1
20260505214318 75 261 5.0 12.0 0.00 0.00 0.00 77 950.2
20260505213817 75 274 7.0 12.0 0.00 0.00 0.00 75 950.5
20260505212800 75 278 4.0 11.0 0.00 0.00 0.00 76 950.5
20260505212259 74 241 5.0 11.0 0.00 0.00 0.00 79 950.4
20260505211758 74 261 5.0 11.0 0.00 0.00 0.00 78 950.4
20260505211257 75 250 6.0 11.0 0.00 0.00 0.00 76 950.4
20260505210756 75 267 1.0 13.0 0.00 0.00 0.00 75 950.5
20260505210255 75 259 2.0 13.0 0.00 0.00 0.00 81 950.7
20260505205754 75 229 6.0 13.0 0.00 0.00 0.00 76 950.6
20260505205253 74 301 2.0 13.0 0.00 0.00 0.00 78 950.5
20260505204752 74 229 5.0 13.0 0.00 0.00 0.00 78 950.9
20260505204251 74 213 2.0 13.0 0.00 0.00 0.00 79 950.9
20260505203234 74 225 3.0 13.0 0.00 0.00 0.00 74 951.0
20260505202733 75 171 3.0 13.0 0.00 0.00 0.00 75 950.6
20260505202232 74 247 3.0 13.0 0.00 0.00 0.00 77 950.7
20260505201731 75 210 2.0 13.0 0.00 0.00 0.00 77 950.8
20260505201230 74 239 5.0 13.0 0.00 0.00 0.00 72 951.1
20260505200729 74 270 0.0 13.0 0.00 0.00 0.00 73 951.2
20260505200228 75 195 5.0 13.0 0.00 0.00 0.00 73 951.0
20260505195727 74 152 1.0 13.0 0.00 0.00 0.00 77 951.2
20260505195226 73 214 3.0 13.0 0.00 0.00 0.00 75 951.0
20260505194725 73 267 3.0 13.0 0.00 0.00 0.00 77 951.3
20260505194223 73 195 3.0 13.0 0.00 0.00 0.00 75 950.9
20260505193722 73 257 4.0 13.0 0.00 0.00 0.00 77 951.1
20260505193221 72 265 2.0 13.0 0.00 0.00 0.00 79 951.3
20260505192720 72 286 2.0 13.0 0.00 0.00 0.00 80 951.0
20260505192219 72 248 3.0 13.0 0.00 0.00 0.00 79 951.1
20260505191717 72 233 3.0 13.0 0.00 0.00 0.00 79 951.1
20260505191216 72 243 1.0 13.0 0.00 0.00 0.00 80 951.3
20260505190715 71 288 1.0 13.0 0.00 0.00 0.00 82 951.2
20260505190214 71 248 1.0 13.0 0.00 0.00 0.00 80 950.9
20260505185713 71 261 2.0 13.0 0.00 0.00 0.00 82 951.4